Time,TemperatureF,DewpointF,PressureIn,WindDirection,WindDirectionDegrees,WindSpeedMPH,WindSpeedGustMPH,Humidity,HourlyPrecipIn,Conditions,Clouds,dailyrainin,SoftwareType,DateUTC
2013-02-20 00:00:00,16.2,11.1,29.85,WSW,252,7.0,21.0,80,0.00,,---,0.39,VWS V14.01,2013-02-20 05:00:00,
2013-02-20 00:01:00,16.2,11.1,29.85,SW,228,5.0,21.0,80,0.00,,---,0.39,VWS V14.01,2013-02-20 05:01:00,
2013-02-20 00:03:00,16.2,11.4,29.85,WNW,288,8.0,11.0,81,0.00,,---,0.00,VWS V14.01,2013-02-20 05:03:00,
2013-02-20 00:05:00,16.2,11.4,29.85,West,262,6.0,13.0,81,0.00,,---,0.00,VWS V14.01,2013-02-20 05:05:00,
2013-02-20 00:07:00,16.2,11.1,29.86,West,277,11.0,16.0,80,0.00,,---,0.00,VWS V14.01,2013-02-20 05:07:00,
2013-02-20 00:13:00,16.1,11.0,29.85,WSW,246,6.0,18.0,80,0.00,,---,0.00,VWS V14.01,2013-02-20 05:13:00,
2013-02-20 00:19:00,16.0,11.2,29.85,West,269,12.0,23.0,81,0.00,,---,0.00,VWS V14.01,2013-02-20 05:19:00,
2013-02-20 00:25:00,15.8,11.6,29.86,WSW,253,6.0,23.0,83,0.00,,---,0.00,VWS V14.01,2013-02-20 05:25:00,
2013-02-20 00:30:00,15.7,11.7,29.86,West,271,7.0,23.0,84,0.00,,---,0.00,VWS V14.01,2013-02-20 05:30:00,
2013-02-20 00:31:00,15.7,11.7,29.86,West,271,7.0,23.0,84,0.00,,---,0.00,VWS V14.01,2013-02-20 05:31:00,
2013-02-20 00:38:00,15.7,11.7,29.85,West,262,4.0,13.0,84,0.00,,---,0.00,VWS V14.01,2013-02-20 05:38:00,
2013-02-20 00:44:00,15.7,11.7,29.86,SW,230,3.0,13.0,84,0.00,,---,0.00,VWS V14.01,2013-02-20 05:44:00,
2013-02-20 00:50:00,15.7,11.7,29.86,WSW,256,6.0,13.0,84,0.00,,---,0.00,VWS V14.01,2013-02-20 05:50:00,
2013-02-20 00:56:00,15.7,12.0,29.86,WSW,241,6.0,14.0,85,0.00,,---,0.00,VWS V14.01,2013-02-20 05:56:00,
2013-02-20 01:00:00,15.6,11.9,29.86,WNW,283,4.0,16.0,85,0.00,,---,0.00,VWS V14.01,2013-02-20 06:00:00,
2013-02-20 01:01:00,15.6,11.9,29.86,WNW,283,4.0,16.0,85,0.00,,---,0.00,VWS V14.01,2013-02-20 06:01:00,
2013-02-20 01:08:00,15.5,11.8,29.86,WSW,244,5.0,15.0,85,0.00,,---,0.00,VWS V14.01,2013-02-20 06:08:00,
2013-02-20 01:14:00,15.4,11.4,29.86,WNW,286,9.0,19.0,84,0.00,,---,0.00,VWS V14.01,2013-02-20 06:14:00,
2013-02-20 01:20:00,15.4,11.2,29.86,West,266,12.0,19.0,83,0.00,,---,0.00,VWS V14.01,2013-02-20 06:20:00,
2013-02-20 01:26:00,15.4,11.2,29.86,WSW,253,15.0,19.0,83,0.00,,---,0.00,VWS V14.01,2013-02-20 06:26:00,
2013-02-20 01:30:00,15.3,10.8,29.87,West,275,14.0,22.0,82,0.00,,---,0.00,VWS V14.01,2013-02-20 06:30:00,
2013-02-20 01:31:00,15.3,10.8,29.87,West,275,14.0,22.0,82,0.00,,---,0.00,VWS V14.01,2013-02-20 06:31:00,
2013-02-20 01:38:00,15.3,10.8,29.86,WSW,245,4.0,18.0,82,0.00,,---,0.00,VWS V14.01,2013-02-20 06:38:00,
2013-02-20 01:45:00,15.3,10.8,29.87,West,269,10.0,20.0,82,0.00,,---,0.00,VWS V14.01,2013-02-20 06:45:00,
2013-02-20 01:51:00,15.3,10.8,29.87,WNW,284,6.0,20.0,82,0.00,,---,0.00,VWS V14.01,2013-02-20 06:51:00,
2013-02-20 01:57:00,15.2,10.4,29.87,West,271,9.0,20.0,81,0.00,,---,0.00,VWS V14.01,2013-02-20 06:57:00,
2013-02-20 02:00:00,15.1,10.6,29.87,WNW,283,11.0,20.0,82,0.00,,---,0.00,VWS V14.01,2013-02-20 07:00:00,
2013-02-20 02:03:00,15.1,10.3,29.87,West,264,16.0,16.0,81,0.00,,---,0.00,VWS V14.01,2013-02-20 07:03:00,
2013-02-20 02:09:00,15.0,10.2,29.87,SW,222,7.0,16.0,81,0.00,,---,0.00,VWS V14.01,2013-02-20 07:09:00,
2013-02-20 02:15:00,14.9,10.1,29.88,West,280,7.0,16.0,81,0.00,,---,0.00,VWS V14.01,2013-02-20 07:15:00,
2013-02-20 02:21:00,14.8,10.0,29.88,WSW,244,8.0,16.0,81,0.00,,---,0.00,VWS V14.01,2013-02-20 07:21:00,
2013-02-20 02:27:00,14.7,9.9,29.88,WSW,256,19.0,19.0,81,0.00,,---,0.00,VWS V14.01,2013-02-20 07:27:00,
2013-02-20 02:30:00,14.6,9.6,29.88,West,277,12.0,19.0,80,0.00,,---,0.00,VWS V14.01,2013-02-20 07:30:00,
2013-02-20 02:33:00,14.6,9.6,29.88,WSW,258,3.0,14.0,80,0.00,,---,0.00,VWS V14.01,2013-02-20 07:33:00,
2013-02-20 02:39:00,14.5,9.7,29.88,NW,308,16.0,22.0,81,0.00,,---,0.00,VWS V14.01,2013-02-20 07:39:00,
2013-02-20 02:45:00,14.4,9.6,29.88,West,275,9.0,22.0,81,0.00,,---,0.00,VWS V14.01,2013-02-20 07:45:00,
2013-02-20 02:51:00,14.3,9.3,29.88,West,280,9.0,22.0,80,0.00,,---,0.00,VWS V14.01,2013-02-20 07:51:00,
2013-02-20 02:57:00,14.3,9.3,29.88,WSW,240,7.0,22.0,80,0.00,,---,0.00,VWS V14.01,2013-02-20 07:57:00,
2013-02-20 03:00:00,14.2,9.4,29.88,West,273,6.0,22.0,81,0.00,,---,0.00,VWS V14.01,2013-02-20 08:00:00,
2013-02-20 03:06:00,14.2,9.4,29.88,WSW,244,12.0,20.0,81,0.00,,---,0.00,VWS V14.01,2013-02-20 08:06:00,
2013-02-20 03:12:00,14.1,9.1,29.88,West,263,7.0,20.0,80,0.00,,---,0.00,VWS V14.01,2013-02-20 08:12:00,
2013-02-20 03:18:00,14.1,9.4,29.88,SW,235,10.0,20.0,81,0.00,,---,0.00,VWS V14.01,2013-02-20 08:18:00,
2013-02-20 03:24:00,14.1,9.1,29.88,West,259,13.0,20.0,80,0.00,,---,0.00,VWS V14.01,2013-02-20 08:24:00,
2013-02-20 03:30:00,14.0,9.3,29.88,WSW,245,10.0,20.0,81,0.00,,---,0.00,VWS V14.01,2013-02-20 08:30:00,
2013-02-20 03:36:00,14.0,9.0,29.87,West,277,10.0,18.0,80,0.00,,---,0.00,VWS V14.01,2013-02-20 08:36:00,
2013-02-20 03:42:00,13.9,8.9,29.88,SW,232,17.0,18.0,80,0.00,,---,0.00,VWS V14.01,2013-02-20 08:42:00,
2013-02-20 03:48:00,13.9,8.9,29.88,West,273,5.0,18.0,80,0.00,,---,0.00,VWS V14.01,2013-02-20 08:48:00,
2013-02-20 03:54:00,13.8,8.8,29.88,West,269,7.0,18.0,80,0.00,,---,0.00,VWS V14.01,2013-02-20 08:54:00,
2013-02-20 04:00:00,13.8,9.1,29.88,WNW,288,12.0,18.0,81,0.00,,---,0.00,VWS V14.01,2013-02-20 09:00:00,
2013-02-20 04:06:00,13.8,8.8,29.88,NW,307,11.0,18.0,80,0.00,,---,0.00,VWS V14.01,2013-02-20 09:06:00,
2013-02-20 04:12:00,13.8,9.1,29.89,WNW,284,13.0,18.0,81,0.00,,---,0.00,VWS V14.01,2013-02-20 09:12:00,
2013-02-20 04:18:00,13.8,9.1,29.89,West,265,5.0,20.0,81,0.00,,---,0.00,VWS V14.01,2013-02-20 09:18:00,
2013-02-20 04:24:00,13.8,9.1,29.90,West,270,10.0,20.0,81,0.00,,---,0.00,VWS V14.01,2013-02-20 09:24:00,
2013-02-20 04:30:00,13.8,9.1,29.89,WSW,247,6.0,20.0,81,0.00,,---,0.00,VWS V14.01,2013-02-20 09:30:00,
2013-02-20 04:36:00,13.8,9.1,29.90,WNW,289,10.0,16.0,81,0.00,,---,0.00,VWS V14.01,2013-02-20 09:36:00,
2013-02-20 04:42:00,13.7,9.2,29.89,WNW,288,7.0,16.0,82,0.00,,---,0.00,VWS V14.01,2013-02-20 09:42:00,
2013-02-20 04:49:00,13.7,9.2,29.90,West,279,7.0,16.0,82,0.00,,---,0.00,VWS V14.01,2013-02-20 09:49:00,
2013-02-20 04:55:00,13.6,9.1,29.90,WNW,288,11.0,20.0,82,0.00,,---,0.00,VWS V14.01,2013-02-20 09:55:00,
2013-02-20 05:00:00,13.6,9.4,29.91,West,265,8.0,20.0,83,0.00,,---,0.00,VWS V14.01,2013-02-20 10:00:00,
2013-02-20 05:01:00,13.6,9.4,29.91,West,271,4.0,20.0,83,0.00,,---,0.00,VWS V14.01,2013-02-20 10:01:00,
2013-02-20 05:07:00,13.6,9.4,29.91,West,275,7.0,16.0,83,0.00,,---,0.00,VWS V14.01,2013-02-20 10:07:00,
2013-02-20 05:13:00,13.6,9.4,29.91,West,265,5.0,17.0,83,0.00,,---,0.00,VWS V14.01,2013-02-20 10:13:00,
2013-02-20 05:19:00,13.6,9.4,29.91,West,272,6.0,17.0,83,0.00,,---,0.00,VWS V14.01,2013-02-20 10:19:00,
2013-02-20 05:25:00,13.5,9.3,29.91,West,259,10.0,17.0,83,0.00,,---,0.00,VWS V14.01,2013-02-20 10:25:00,
2013-02-20 05:30:00,13.5,9.3,29.92,WSW,254,3.0,17.0,83,0.00,,---,0.00,VWS V14.01,2013-02-20 10:30:00,
2013-02-20 05:31:00,13.5,9.3,29.92,WNW,298,7.0,17.0,83,0.00,,---,0.00,VWS V14.01,2013-02-20 10:31:00,
2013-02-20 05:37:00,13.5,9.6,29.92,WSW,250,3.0,12.0,84,0.00,,---,0.00,VWS V14.01,2013-02-20 10:37:00,
2013-02-20 05:43:00,13.5,9.3,29.92,West,271,4.0,13.0,83,0.00,,---,0.00,VWS V14.01,2013-02-20 10:43:00,
2013-02-20 05:49:00,13.5,9.6,29.92,West,275,9.0,16.0,84,0.00,,---,0.00,VWS V14.01,2013-02-20 10:49:00,
2013-02-20 05:55:00,13.5,9.6,29.92,West,261,7.0,16.0,84,0.00,,---,0.00,VWS V14.01,2013-02-20 10:55:00,
2013-02-20 06:00:00,13.4,9.7,29.92,WSW,249,5.0,16.0,85,0.00,,---,0.00,VWS V14.01,2013-02-20 11:00:00,
2013-02-20 06:01:00,13.4,9.7,29.92,WSW,248,4.0,16.0,85,0.00,,---,0.00,VWS V14.01,2013-02-20 11:01:00,
2013-02-20 06:07:00,13.5,9.8,29.93,West,265,6.0,14.0,85,0.00,,---,0.00,VWS V14.01,2013-02-20 11:07:00,
2013-02-20 06:13:00,13.4,9.7,29.93,WSW,238,2.0,14.0,85,0.00,,---,0.00,VWS V14.01,2013-02-20 11:13:00,
2013-02-20 06:19:00,13.4,9.7,29.93,WNW,303,4.0,14.0,85,0.00,,---,0.00,VWS V14.01,2013-02-20 11:19:00,
2013-02-20 06:25:00,13.4,9.7,29.93,WSW,242,5.0,14.0,85,0.00,,---,0.00,VWS V14.01,2013-02-20 11:25:00,
2013-02-20 06:30:00,13.4,9.7,29.94,WNW,294,10.0,14.0,85,0.00,,---,0.00,VWS V14.01,2013-02-20 11:30:00,
2013-02-20 06:31:00,13.4,9.7,29.94,WNW,294,10.0,14.0,85,0.00,,---,0.00,VWS V14.01,2013-02-20 11:31:00,
2013-02-20 06:37:00,13.3,9.6,29.93,WNW,288,5.0,14.0,85,0.00,,---,0.00,VWS V14.01,2013-02-20 11:37:00,
2013-02-20 06:43:00,13.3,9.6,29.93,WSW,252,10.0,14.0,85,0.00,,---,0.00,VWS V14.01,2013-02-20 11:43:00,
2013-02-20 06:50:00,13.3,9.6,29.93,WNW,288,13.0,14.0,85,0.00,,---,0.00,VWS V14.01,2013-02-20 11:50:00,
2013-02-20 06:56:00,13.3,9.6,29.93,WSW,248,5.0,18.0,85,0.00,,---,0.00,VWS V14.01,2013-02-20 11:56:00,
2013-02-20 07:00:00,13.4,9.7,29.94,West,271,4.0,18.0,85,0.00,,---,0.00,VWS V14.01,2013-02-20 12:00:00,
2013-02-20 07:01:00,13.4,9.7,29.94,West,271,4.0,18.0,85,0.00,,---,0.00,VWS V14.01,2013-02-20 12:01:00,
2013-02-20 07:30:00,13.5,9.8,29.95,West,270,7.0,16.0,85,0.00,,---,0.00,VWS V14.01,2013-02-20 12:30:00,
2013-02-20 08:00:00,13.7,10.0,29.95,West,270,8.0,17.0,85,0.00,,---,0.00,VWS V14.01,2013-02-20 13:00:00,
2013-02-20 08:58:00,14.4,11.0,29.96,WSW,250,7.0,14.0,86,0.00,,---,0.00,VWS V14.01,2013-02-20 13:58:00,
2013-02-20 09:04:00,14.7,11.0,29.97,WNW,288,5.0,12.0,85,0.00,,---,0.00,VWS V14.01,2013-02-20 14:04:00,
2013-02-20 09:10:00,14.6,10.7,29.96,West,272,12.0,20.0,84,0.00,,---,0.00,VWS V14.01,2013-02-20 14:10:00,
2013-02-20 09:16:00,14.6,10.7,29.96,West,280,7.0,24.0,84,0.00,,---,0.00,VWS V14.01,2013-02-20 14:16:00,
2013-02-20 09:22:00,14.9,10.9,29.96,West,269,4.0,24.0,84,0.00,,---,0.00,VWS V14.01,2013-02-20 14:22:00,
2013-02-20 09:28:00,15.0,10.8,29.96,West,278,5.0,24.0,83,0.00,,---,0.00,VWS V14.01,2013-02-20 14:28:00,
2013-02-20 09:34:00,15.4,11.2,29.97,West,273,11.0,20.0,83,0.00,,---,0.00,VWS V14.01,2013-02-20 14:34:00,
2013-02-20 09:40:00,15.3,11.1,29.97,West,274,7.0,23.0,83,0.00,,---,0.00,VWS V14.01,2013-02-20 14:40:00,
2013-02-20 09:46:00,15.6,11.4,29.97,West,276,18.0,23.0,83,0.00,,---,0.00,VWS V14.01,2013-02-20 14:46:00,
2013-02-20 09:52:00,15.4,10.9,29.97,WNW,286,9.0,23.0,82,0.00,,---,0.00,VWS V14.01,2013-02-20 14:52:00,
2013-02-20 09:58:00,15.3,11.1,29.97,West,269,12.0,23.0,83,0.00,,---,0.00,VWS V14.01,2013-02-20 14:58:00,
2013-02-20 10:04:00,15.5,11.0,29.97,WSW,248,10.0,19.0,82,0.00,,---,0.00,VWS V14.01,2013-02-20 15:04:00,
2013-02-20 10:10:00,15.7,10.4,29.98,WSW,241,16.0,23.0,79,0.00,,---,0.00,VWS V14.01,2013-02-20 15:10:00,
2013-02-20 10:16:00,15.8,10.2,29.99,WNW,300,2.0,23.0,78,0.00,,---,0.00,VWS V14.01,2013-02-20 15:16:00,
2013-02-20 10:22:00,15.8,9.6,29.99,West,271,11.0,23.0,76,0.00,,---,0.00,VWS V14.01,2013-02-20 15:22:00,
2013-02-20 10:28:00,15.9,10.3,29.99,WNW,292,2.0,23.0,78,0.00,,---,0.00,VWS V14.01,2013-02-20 15:28:00,
2013-02-20 10:35:00,15.9,10.3,29.99,West,269,12.0,18.0,78,0.00,,---,0.00,VWS V14.01,2013-02-20 15:35:00,
2013-02-20 10:41:00,15.3,10.8,30.00,WSW,245,9.0,24.0,82,0.00,,---,0.00,VWS V14.01,2013-02-20 15:41:00,
2013-02-20 10:47:00,15.1,11.4,30.00,West,268,17.0,24.0,85,0.00,,---,0.00,VWS V14.01,2013-02-20 15:47:00,
2013-02-20 10:53:00,15.5,11.3,30.00,West,280,9.0,24.0,83,0.00,,---,0.00,VWS V14.01,2013-02-20 15:53:00,
2013-02-20 10:59:00,15.2,10.4,30.01,WSW,250,12.0,24.0,81,0.00,,---,0.00,VWS V14.01,2013-02-20 15:59:00,
2013-02-20 11:05:00,15.5,10.4,30.01,WNW,284,10.0,22.0,80,0.00,,---,0.00,VWS V14.01,2013-02-20 16:05:00,
2013-02-20 11:11:00,16.1,10.5,30.01,West,262,9.0,22.0,78,0.00,,---,0.00,VWS V14.01,2013-02-20 16:11:00,
2013-02-20 11:17:00,16.5,10.6,30.01,NW,318,2.0,22.0,77,0.00,,---,0.00,VWS V14.01,2013-02-20 16:17:00,
2013-02-20 11:23:00,15.8,9.9,30.02,NW,317,9.0,22.0,77,0.00,,---,0.00,VWS V14.01,2013-02-20 16:23:00,
2013-02-20 11:29:00,15.1,9.2,30.02,West,275,5.0,22.0,77,0.00,,---,0.00,VWS V14.01,2013-02-20 16:29:00,
2013-02-20 11:35:00,15.3,9.7,30.02,WNW,283,5.0,19.0,78,0.00,,---,0.00,VWS V14.01,2013-02-20 16:35:00,
2013-02-20 11:41:00,15.3,9.4,30.02,WNW,287,5.0,23.0,77,0.00,,---,0.00,VWS V14.01,2013-02-20 16:41:00,
2013-02-20 11:47:00,15.4,8.9,30.02,West,280,7.0,23.0,75,0.00,,---,0.00,VWS V14.01,2013-02-20 16:47:00,
2013-02-20 11:53:00,15.5,8.7,30.03,West,278,4.0,23.0,74,0.00,,---,0.00,VWS V14.01,2013-02-20 16:53:00,
2013-02-20 11:59:00,16.1,9.3,30.03,West,269,13.0,23.0,74,0.00,,---,0.00,VWS V14.01,2013-02-20 16:59:00,
2013-02-20 12:05:00,17.1,9.3,30.02,West,271,11.0,22.0,71,0.00,,---,0.00,VWS V14.01,2013-02-20 17:05:00,
2013-02-20 12:11:00,16.2,10.0,30.02,West,261,12.0,23.0,76,0.00,,---,0.00,VWS V14.01,2013-02-20 17:11:00,
2013-02-20 12:17:00,15.2,10.7,30.03,West,275,12.0,23.0,82,0.00,,---,0.00,VWS V14.01,2013-02-20 17:17:00,
2013-02-20 12:23:00,15.2,11.2,30.03,West,260,5.0,23.0,84,0.00,,---,0.00,VWS V14.01,2013-02-20 17:23:00,
2013-02-20 12:29:00,15.2,11.2,30.03,West,279,6.0,23.0,84,0.00,,---,0.00,VWS V14.01,2013-02-20 17:29:00,
2013-02-20 12:36:00,15.4,12.0,30.03,West,281,4.0,12.0,86,0.00,,---,0.00,VWS V14.01,2013-02-20 17:36:00,
2013-02-20 12:42:00,15.5,12.1,30.03,West,271,4.0,22.0,86,0.00,,---,0.00,VWS V14.01,2013-02-20 17:42:00,
2013-02-20 12:48:00,14.8,11.4,30.04,NW,311,5.0,23.0,86,0.00,,---,0.00,VWS V14.01,2013-02-20 17:48:00,
2013-02-20 12:54:00,14.5,11.1,30.04,WNW,290,4.0,23.0,86,0.00,,---,0.00,VWS V14.01,2013-02-20 17:54:00,
2013-02-20 13:00:00,14.6,11.2,30.04,West,277,10.0,23.0,86,0.00,,---,0.00,VWS V14.01,2013-02-20 18:00:00,
2013-02-20 13:06:00,15.7,12.0,30.03,West,267,11.0,21.0,85,0.00,,---,0.00,VWS V14.01,2013-02-20 18:06:00,
2013-02-20 13:12:00,16.4,11.3,30.04,WSW,240,4.0,25.0,80,0.00,,---,0.00,VWS V14.01,2013-02-20 18:12:00,
2013-02-20 13:18:00,16.8,10.9,30.04,WNW,286,14.0,25.0,77,0.00,,---,0.00,VWS V14.01,2013-02-20 18:18:00,
2013-02-20 13:24:00,17.0,9.9,30.04,WSW,239,12.0,25.0,73,0.00,,---,0.00,VWS V14.01,2013-02-20 18:24:00,
2013-02-20 13:30:00,16.2,10.0,30.04,West,264,19.0,25.0,76,0.00,,---,0.00,VWS V14.01,2013-02-20 18:30:00,
2013-02-20 13:36:00,15.4,10.6,30.05,WNW,288,7.0,21.0,81,0.00,,---,0.00,VWS V14.01,2013-02-20 18:36:00,
2013-02-20 13:42:00,15.3,10.8,30.06,West,276,9.0,21.0,82,0.00,,---,0.00,VWS V14.01,2013-02-20 18:42:00,
2013-02-20 13:48:00,15.6,11.4,30.06,West,277,5.0,21.0,83,0.00,,---,0.00,VWS V14.01,2013-02-20 18:48:00,
2013-02-20 13:54:00,16.1,11.6,30.06,WNW,282,6.0,21.0,82,0.00,,---,0.00,VWS V14.01,2013-02-20 18:54:00,
2013-02-20 14:00:00,16.1,10.8,30.06,WNW,299,5.0,21.0,79,0.00,,---,0.00,VWS V14.01,2013-02-20 19:00:00,
2013-02-20 14:06:00,15.6,10.3,30.06,West,259,14.0,15.0,79,0.00,,---,0.00,VWS V14.01,2013-02-20 19:06:00,
2013-02-20 14:12:00,15.4,10.4,30.07,WNW,287,14.0,17.0,80,0.00,,---,0.00,VWS V14.01,2013-02-20 19:12:00,
2013-02-20 14:18:00,15.4,10.9,30.07,West,259,6.0,17.0,82,0.00,,---,0.00,VWS V14.01,2013-02-20 19:18:00,
2013-02-20 14:25:00,16.0,10.9,30.08,WNW,290,5.0,17.0,80,0.00,,---,0.00,VWS V14.01,2013-02-20 19:25:00,
2013-02-20 14:31:00,16.4,9.9,30.07,WNW,283,4.0,17.0,75,0.00,,---,0.00,VWS V14.01,2013-02-20 19:31:00,
2013-02-20 14:37:00,16.3,9.2,30.07,WNW,292,12.0,19.0,73,0.00,,---,0.00,VWS V14.01,2013-02-20 19:37:00,
2013-02-20 14:43:00,15.6,9.7,30.07,West,266,14.0,22.0,77,0.00,,---,0.00,VWS V14.01,2013-02-20 19:43:00,
2013-02-20 14:49:00,15.3,10.2,30.08,West,268,9.0,22.0,80,0.00,,---,0.00,VWS V14.01,2013-02-20 19:49:00,
2013-02-20 14:55:00,15.3,11.3,30.08,WNW,284,2.0,22.0,84,0.00,,---,0.00,VWS V14.01,2013-02-20 19:55:00,
2013-02-20 15:01:00,15.3,10.8,30.08,West,279,10.0,22.0,82,0.00,,---,0.00,VWS V14.01,2013-02-20 20:01:00,
2013-02-20 15:07:00,15.5,10.4,30.08,NW,304,5.0,17.0,80,0.00,,---,0.00,VWS V14.01,2013-02-20 20:07:00,
2013-02-20 15:13:00,15.6,10.0,30.09,WSW,255,14.0,18.0,78,0.00,,---,0.00,VWS V14.01,2013-02-20 20:13:00,
2013-02-20 15:19:00,15.7,9.8,30.09,NW,319,3.0,18.0,77,0.00,,---,0.00,VWS V14.01,2013-02-20 20:19:00,
2013-02-20 15:25:00,15.7,8.6,30.09,WNW,286,10.0,18.0,73,0.00,,---,0.00,VWS V14.01,2013-02-20 20:25:00,
2013-02-20 15:31:00,15.6,8.5,30.09,WNW,299,16.0,18.0,73,0.00,,---,0.00,VWS V14.01,2013-02-20 20:31:00,
2013-02-20 15:37:00,15.5,8.7,30.09,WSW,244,6.0,18.0,74,0.00,,---,0.00,VWS V14.01,2013-02-20 20:37:00,
2013-02-20 15:43:00,15.5,8.4,30.10,WNW,300,7.0,24.0,73,0.00,,---,0.00,VWS V14.01,2013-02-20 20:43:00,
2013-02-20 15:49:00,15.5,9.0,30.10,WNW,303,5.0,24.0,75,0.00,,---,0.00,VWS V14.01,2013-02-20 20:49:00,
2013-02-20 15:55:00,15.6,9.4,30.11,WNW,285,4.0,24.0,76,0.00,,---,0.00,VWS V14.01,2013-02-20 20:55:00,
2013-02-20 16:01:00,15.8,9.9,30.11,NW,307,3.0,24.0,77,0.00,,---,0.00,VWS V14.01,2013-02-20 21:01:00,
2013-02-20 16:07:00,15.7,9.5,30.11,West,277,7.0,17.0,76,0.00,,---,0.00,VWS V14.01,2013-02-20 21:07:00,
2013-02-20 16:14:00,15.6,9.7,30.11,West,274,17.0,20.0,77,0.00,,---,0.00,VWS V14.01,2013-02-20 21:14:00,
2013-02-20 16:20:00,15.3,10.0,30.11,West,270,8.0,20.0,79,0.00,,---,0.00,VWS V14.01,2013-02-20 21:20:00,
2013-02-20 16:26:00,15.3,10.2,30.11,WNW,299,6.0,20.0,80,0.00,,---,0.00,VWS V14.01,2013-02-20 21:26:00,
2013-02-20 16:31:00,15.3,10.5,30.12,NW,305,2.0,20.0,81,0.00,,---,0.00,VWS V14.01,2013-02-20 21:31:00,
2013-02-20 16:38:00,15.3,10.5,30.12,West,281,6.0,11.0,81,0.00,,---,0.00,VWS V14.01,2013-02-20 21:38:00,
2013-02-20 16:44:00,15.2,10.7,30.12,WNW,287,7.0,14.0,82,0.00,,---,0.00,VWS V14.01,2013-02-20 21:44:00,
2013-02-20 16:50:00,15.1,10.6,30.13,West,279,5.0,14.0,82,0.00,,---,0.00,VWS V14.01,2013-02-20 21:50:00,
2013-02-20 16:56:00,15.2,10.4,30.13,WNW,294,10.0,14.0,81,0.00,,---,0.00,VWS V14.01,2013-02-20 21:56:00,
2013-02-20 17:01:00,15.2,10.7,30.13,SW,230,11.0,17.0,82,0.00,,---,0.00,VWS V14.01,2013-02-20 22:01:00,
2013-02-20 17:08:00,15.0,10.8,30.14,WNW,292,13.0,18.0,83,0.00,,---,0.00,VWS V14.01,2013-02-20 22:08:00,
2013-02-20 17:14:00,15.0,10.8,30.14,West,279,4.0,18.0,83,0.00,,---,0.00,VWS V14.01,2013-02-20 22:14:00,
2013-02-20 17:20:00,15.1,10.6,30.14,West,261,7.0,18.0,82,0.00,,---,0.00,VWS V14.01,2013-02-20 22:20:00,
2013-02-20 17:26:00,15.2,10.4,30.15,WNW,296,10.0,18.0,81,0.00,,---,0.00,VWS V14.01,2013-02-20 22:26:00,
2013-02-20 17:31:00,15.2,10.4,30.15,West,279,14.0,18.0,81,0.00,,---,0.00,VWS V14.01,2013-02-20 22:31:00,
2013-02-20 17:38:00,15.2,10.1,30.15,West,264,13.0,18.0,80,0.00,,---,0.00,VWS V14.01,2013-02-20 22:38:00,
2013-02-20 17:44:00,15.2,10.1,30.15,WNW,295,11.0,18.0,80,0.00,,---,0.00,VWS V14.01,2013-02-20 22:44:00,
2013-02-20 17:50:00,15.2,10.4,30.15,WNW,284,6.0,18.0,81,0.00,,---,0.00,VWS V14.01,2013-02-20 22:50:00,
2013-02-20 17:57:00,15.2,10.7,30.16,WNW,282,10.0,18.0,82,0.00,,---,0.00,VWS V14.01,2013-02-20 22:57:00,
2013-02-20 18:03:00,15.2,10.4,30.17,West,264,5.0,9.0,81,0.00,,---,0.00,VWS V14.01,2013-02-20 23:03:00,
2013-02-20 18:09:00,15.2,10.1,30.17,West,276,3.0,12.0,80,0.00,,---,0.00,VWS V14.01,2013-02-20 23:09:00,
2013-02-20 18:15:00,15.3,10.2,30.17,WNW,288,4.0,12.0,80,0.00,,---,0.00,VWS V14.01,2013-02-20 23:15:00,
2013-02-20 18:21:00,15.4,10.4,30.17,West,273,6.0,12.0,80,0.00,,---,0.00,VWS V14.01,2013-02-20 23:21:00,
2013-02-20 18:27:00,15.4,10.1,30.18,West,261,7.0,14.0,79,0.00,,---,0.00,VWS V14.01,2013-02-20 23:27:00,
2013-02-20 18:33:00,15.5,10.2,30.18,West,268,4.0,10.0,79,0.00,,---,0.00,VWS V14.01,2013-02-20 23:33:00,
2013-02-20 18:39:00,15.5,10.2,30.17,WNW,286,10.0,15.0,79,0.00,,---,0.00,VWS V14.01,2013-02-20 23:39:00,
2013-02-20 18:45:00,15.4,10.4,30.17,West,272,3.0,15.0,80,0.00,,---,0.00,VWS V14.01,2013-02-20 23:45:00,
2013-02-20 18:51:00,15.4,10.4,30.17,WSW,252,5.0,16.0,80,0.00,,---,0.00,VWS V14.01,2013-02-20 23:51:00,
2013-02-20 18:57:00,15.4,10.6,30.17,West,279,11.0,16.0,81,0.00,,---,0.00,VWS V14.01,2013-02-20 23:57:00,
2013-02-20 19:03:00,15.4,10.6,30.17,West,259,11.0,11.0,81,0.00,,---,0.00,VWS V14.01,2013-02-21 00:03:00,
2013-02-20 19:09:00,15.4,10.6,30.18,WSW,253,2.0,13.0,81,0.00,,---,0.00,VWS V14.01,2013-02-21 00:09:00,
2013-02-20 19:15:00,15.4,10.6,30.17,West,265,9.0,13.0,81,0.00,,---,0.00,VWS V14.01,2013-02-21 00:15:00,
2013-02-20 19:21:00,15.4,10.6,30.17,WNW,293,7.0,14.0,81,0.00,,---,0.00,VWS V14.01,2013-02-21 00:21:00,
2013-02-20 19:27:00,15.4,10.6,30.17,West,272,9.0,14.0,81,0.00,,---,0.00,VWS V14.01,2013-02-21 00:27:00,
2013-02-20 19:33:00,15.4,10.6,30.17,WNW,296,4.0,12.0,81,0.00,,---,0.00,VWS V14.01,2013-02-21 00:33:00,
2013-02-20 19:39:00,15.4,10.6,30.17,West,271,4.0,12.0,81,0.00,,---,0.00,VWS V14.01,2013-02-21 00:39:00,
2013-02-20 19:45:00,15.3,10.8,30.17,West,259,7.0,12.0,82,0.00,,---,0.00,VWS V14.01,2013-02-21 00:45:00,
2013-02-20 19:52:00,15.3,10.8,30.17,West,272,4.0,12.0,82,0.00,,---,0.00,VWS V14.01,2013-02-21 00:52:00,
2013-02-20 19:58:00,15.3,10.8,30.17,West,273,2.0,12.0,82,0.00,,---,0.00,VWS V14.01,2013-02-21 00:58:00,
2013-02-20 20:04:00,15.3,10.8,30.17,West,262,6.0,12.0,82,0.00,,---,0.00,VWS V14.01,2013-02-21 01:04:00,
2013-02-20 20:10:00,15.3,11.1,30.17,WNW,295,5.0,12.0,83,0.00,,---,0.00,VWS V14.01,2013-02-21 01:10:00,
2013-02-20 20:16:00,15.3,11.1,30.17,WSW,257,5.0,14.0,83,0.00,,---,0.00,VWS V14.01,2013-02-21 01:16:00,
2013-02-20 20:22:00,15.2,11.0,30.17,WNW,299,3.0,14.0,83,0.00,,---,0.00,VWS V14.01,2013-02-21 01:22:00,
2013-02-20 20:28:00,15.3,11.1,30.17,WNW,297,4.0,14.0,83,0.00,,---,0.00,VWS V14.01,2013-02-21 01:28:00,
2013-02-20 20:34:00,15.3,11.1,30.17,West,280,3.0,10.0,83,0.00,,---,0.00,VWS V14.01,2013-02-21 01:34:00,
2013-02-20 20:40:00,15.3,11.3,30.17,West,271,6.0,11.0,84,0.00,,---,0.00,VWS V14.01,2013-02-21 01:40:00,
2013-02-20 20:46:00,15.3,11.3,30.17,West,261,8.0,11.0,84,0.00,,---,0.00,VWS V14.01,2013-02-21 01:46:00,
2013-02-20 20:52:00,15.3,11.3,30.17,WSW,256,7.0,11.0,84,0.00,,---,0.00,VWS V14.01,2013-02-21 01:52:00,
2013-02-20 20:58:00,15.3,11.3,30.17,West,279,4.0,12.0,84,0.00,,---,0.00,VWS V14.01,2013-02-21 01:58:00,
2013-02-20 21:04:00,15.2,11.2,30.17,WNW,290,5.0,10.0,84,0.00,,---,0.00,VWS V14.01,2013-02-21 02:04:00,
2013-02-20 21:10:00,15.2,11.5,30.17,West,272,3.0,11.0,85,0.00,,---,0.00,VWS V14.01,2013-02-21 02:10:00,
2013-02-20 21:16:00,15.2,11.5,30.17,West,275,3.0,11.0,85,0.00,,---,0.00,VWS V14.01,2013-02-21 02:16:00,
2013-02-20 21:22:00,15.1,11.4,30.17,West,270,3.0,11.0,85,0.00,,---,0.00,VWS V14.01,2013-02-21 02:22:00,
2013-02-20 21:28:00,15.1,11.7,30.17,SW,236,5.0,11.0,86,0.00,,---,0.00,VWS V14.01,2013-02-21 02:28:00,
2013-02-20 21:35:00,15.1,11.7,30.18,West,269,6.0,11.0,86,0.00,,---,0.00,VWS V14.01,2013-02-21 02:35:00,
2013-02-20 21:41:00,15.2,11.5,30.18,West,275,6.0,12.0,85,0.00,,---,0.00,VWS V14.01,2013-02-21 02:41:00,
2013-02-20 21:47:00,15.3,11.6,30.18,WNW,296,3.0,12.0,85,0.00,,---,0.00,VWS V14.01,2013-02-21 02:47:00,
2013-02-20 21:53:00,15.2,11.5,30.18,WSW,253,5.0,12.0,85,0.00,,---,0.00,VWS V14.01,2013-02-21 02:53:00,
2013-02-20 21:59:00,15.3,11.6,30.18,West,276,9.0,12.0,85,0.00,,---,0.00,VWS V14.01,2013-02-21 02:59:00,
2013-02-20 22:05:00,15.2,11.5,30.17,West,270,8.0,13.0,85,0.00,,---,0.00,VWS V14.01,2013-02-21 03:05:00,
2013-02-20 22:11:00,15.2,11.5,30.17,WSW,246,4.0,13.0,85,0.00,,---,0.00,VWS V14.01,2013-02-21 03:11:00,
2013-02-20 22:17:00,15.2,11.5,30.17,West,273,2.0,14.0,85,0.00,,---,0.00,VWS V14.01,2013-02-21 03:17:00,
2013-02-20 22:23:00,15.2,11.8,30.17,WSW,252,5.0,14.0,86,0.00,,---,0.00,VWS V14.01,2013-02-21 03:23:00,
2013-02-20 22:29:00,15.2,11.8,30.17,West,280,6.0,14.0,86,0.00,,---,0.00,VWS V14.01,2013-02-21 03:29:00,
2013-02-20 22:35:00,15.2,11.8,30.17,West,280,4.0,10.0,86,0.00,,---,0.00,VWS V14.01,2013-02-21 03:35:00,
2013-02-20 22:41:00,15.2,11.8,30.17,WSW,246,2.0,13.0,86,0.00,,---,0.00,VWS V14.01,2013-02-21 03:41:00,
2013-02-20 22:47:00,15.2,11.5,30.17,West,261,3.0,13.0,85,0.00,,---,0.00,VWS V14.01,2013-02-21 03:47:00,
2013-02-20 22:53:00,15.2,11.5,30.17,WSW,255,5.0,13.0,85,0.00,,---,0.00,VWS V14.01,2013-02-21 03:53:00,
2013-02-20 22:59:00,15.2,11.8,30.17,West,261,3.0,13.0,86,0.00,,---,0.00,VWS V14.01,2013-02-21 03:59:00,
2013-02-20 23:06:00,15.1,11.7,30.17,West,281,8.0,11.0,86,0.00,,---,0.00,VWS V14.01,2013-02-21 04:06:00,
2013-02-20 23:12:00,15.1,11.7,30.17,West,265,7.0,11.0,86,0.00,,---,0.00,VWS V14.01,2013-02-21 04:12:00,
2013-02-20 23:18:00,15.0,11.6,30.18,West,281,4.0,11.0,86,0.00,,---,0.00,VWS V14.01,2013-02-21 04:18:00,
2013-02-20 23:24:00,15.0,11.6,30.17,West,275,5.0,11.0,86,0.00,,---,0.00,VWS V14.01,2013-02-21 04:24:00,
2013-02-20 23:30:00,15.0,11.6,30.18,West,275,5.0,11.0,86,0.00,,---,0.00,VWS V14.01,2013-02-21 04:30:00,
2013-02-20 23:36:00,15.0,11.6,30.17,West,269,6.0,10.0,86,0.00,,---,0.00,VWS V14.01,2013-02-21 04:36:00,
2013-02-20 23:42:00,15.0,11.6,30.17,WNW,282,6.0,11.0,86,0.00,,---,0.00,VWS V14.01,2013-02-21 04:42:00,
2013-02-20 23:48:00,15.0,11.6,30.17,WSW,248,8.0,13.0,86,0.00,,---,0.00,VWS V14.01,2013-02-21 04:48:00,
2013-02-20 23:54:00,15.0,11.6,30.17,West,276,5.0,13.0,86,0.00,,---,0.00,VWS V14.01,2013-02-21 04:54:00,